Location: Niagara
(43.2500°N, 79.0670°W)
Time: 17:32:53
(UTC-05:00)

N. Korean satellite - Pass Details

Date: 11 October 2017
Orbit: 461 x 513 km, 97.2° (Epoch: 17 December)

Event Time Altitude Azimuth Distance (km) Brightness Sun altitude
Rises 19:00:58 0° 157° (SSE) 2,558 10.1 -4.7°
Reaches altitude 10° 19:03:04 10° 153° (SSE) 1,672 9.1 -5.1°
Maximum altitude 19:06:35 56° 75° (ENE) 578 6.6 -5.7°
Drops below altitude 10° 19:10:05 10° 357° (N) 1,656 9.3 -6.4°
Sets 19:12:09 0° 353° (N) 2,531 10.3 -6.7°
